GFSGBSN_prec_cthk_072.txt.gz
RH
41 42 38 36 37 37 37 34 34 35 39 43 45 46 46 43 40 36 33 34 33 31 29 28 26 27 27 30 34 27 31 30 32 35 35 31 29 31 31 25 27 24 23 25 30 32 27
35 40 40 39 39 40 38 38 34 31 30 34 36 39 38 38 38 37 35 34 32 31 29 29 29 34 35 38 29 28 31 32 34 35 36 34 31 30 32 28 27 25 22 23 23 24 32
36 37 37 35 33 36 41 45 48 37 33 28 28 28 27 28 28 25 25 29 31 30 29 29 28 34 36 31 25 28 35 36 36 36 39 35 34 34 33 30 26 21 18 22 22 30 37
35 36 36 38 36 30 25 23 33 42 39 30 26 21 22 23 22 22 15 13 15 21 26 26 28 33 33 32 27 25 28 35 35 37 40 37 36 37 36 31 26 22 20 29 29 35 39
42 41 35 34 34 33 30 27 24 22 22 35 38 30 25 26 23 21 21 11 11 11 11 17 25 31 33 34 34 35 28 32 36 37 39 39 41 41 36 32 31 22 24 29 39 38 40
45 43 41 42 40 43 40 36 34 31 25 23 21 19 16 16 16 20 16 11 9 10 10 15 22 32 28 29 36 35 35 33 33 37 38 40 43 41 39 36 32 30 25 37 42 41 46
31 32 33 34 29 29 34 34 34 33 33 30 28 30 27 19 15 17 14 11 11 18 23 18 26 24 17 27 34 37 36 36 36 38 41 41 44 40 39 32 25 28 36 40 38 44 51
27 25 23 21 19 21 23 24 29 32 25 21 19 16 25 27 21 14 16 13 15 31 28 18 21 25 18 18 30 31 39 39 39 41 41 41 40 40 39 31 28 27 38 40 37 44 48
22 18 17 17 18 18 19 22 27 27 29 30 31 29 20 20 21 21 18 19 26 33 30 18 13 14 12 15 21 22 36 40 38 41 42 43 42 41 41 30 30 34 36 34 36 41 47
25 20 14 18 19 19 20 25 27 28 31 35 37 40 40 29 23 24 30 28 29 37 29 17 12 10 12 14 20 13 20 37 38 37 40 41 43 42 40 36 37 41 34 35 38 40 48
19 16 21 23 18 19 25 28 28 28 38 41 45 46 45 46 35 32 34 31 37 28 15 6 9 7 14 15 13 16 14 27 35 36 39 37 44 44 45 42 46 42 37 43 45 46 45
20 17 18 17 17 21 25 27 29 33 38 44 49 50 52 53 49 31 43 41 49 44 38 10 10 16 20 20 16 20 23 23 32 35 36 35 42 46 41 41 51 45 39 42 48 50 50
14 14 18 20 21 22 26 28 36 40 43 49 56 58 58 56 60 48 43 51 62 61 14 10 15 24 20 20 22 24 28 25 34 38 36 38 40 43 46 47 49 47 46 52 53 60 54
21 20 22 26 28 27 30 38 41 46 51 57 64 67 69 64 74 63 62 63 69 30 29 16 20 26 37 26 21 26 30 27 33 36 37 40 44 42 46 45 46 45 42 51 53 59 55
23 23 28 32 33 34 39 44 49 55 60 66 77 81 80 79 88 76 80 72 47 35 32 27 25 40 32 38 42 33 32 31 28 35 39 41 40 38 41 46 47 49 50 41 58 61 68
29 35 40 41 42 44 47 53 59 67 74 81 88 95 87 95 96 89 87 60 49 40 35 40 46 46 46 61 59 57 42 28 32 34 40 42 45 39 44 49 49 51 46 57 58 74 72
46 50 52 49 52 55 59 65 71 80 89 97 99 98 85 97 98 93 69 65 62 56 46 40 45 50 59 63 72 69 58 41 34 33 42 44 45 45 47 52 55 55 51 57 56 66 71
64 64 62 65 70 74 79 84 88 93 99 99 99 96 88 96 95 79 70 74 66 66 64 51 36 37 61 66 76 79 68 59 52 49 44 45 54 53 47 47 54 56 47 50 65 67 74
80 80 84 91 96 98 98 98 98 98 99 99 98 97 93 91 83 78 76 71 70 66 64 57 38 31 50 61 76 72 63 64 62 58 52 52 59 63 53 53 58 55 47 55 52 56 70
98 97 97 97 98 98 98 98 98 98 99 99 99 98 94 87 74 76 82 75 70 64 65 59 46 36 45 59 63 69 68 77 75 66 58 55 59 51 50 51 62 62 50 51 54 61 56
98 98 98 98 98 98 98 98 98 98 98 99 98 89 79 78 75 75 76 70 70 70 63 61 52 45 42 49 51 50 74 76 78 71 66 55 57 52 51 55 63 66 57 57 56 53 52
94 94 94 92 92 95 97 98 98 98 99 98 97 87 86 81 83 81 76 67 67 72 66 60 57 46 41 48 49 59 72 80 87 78 67 62 60 57 60 60 69 71 63 58 60 58 57
50 53 62 70 79 86 86 87 94 98 99 98 96 92 90 88 89 82 56 68 74 74 66 54 55 51 40 48 60 72 80 76 82 85 80 72 68 62 62 68 74 74 65 62 64 62 58
59 64 68 70 69 64 58 59 73 87 98 99 97 95 98 88 79 66 73 75 74 74 68 59 57 58 40 36 66 73 84 73 73 86 84 79 73 68 79 71 90 64 59 65 65 57 54
79 81 80 78 79 80 82 78 66 58 72 98 99 99 99 89 76 84 76 73 79 76 73 64 62 58 52 40 57 78 80 73 65 60 69 80 82 80 80 72 66 65 59 63 66 59 54
93 93 92 89 84 81 78 78 84 83 73 82 90 98 99 96 82 73 82 76 76 74 75 67 63 65 63 54 58 71 75 63 52 60 63 81 83 74 79 72 74 60 58 60 63 64 58
97 93 94 94 94 92 83 84 87 93 95 90 88 94 99 98 80 80 72 71 75 76 73 70 64 66 64 62 61 73 78 70 76 73 70 77 85 79 83 77 71 63 61 58 67 58 55
96 94 90 91 94 96 90 87 93 98 98 98 95 98 97 98 84 74 73 70 73 77 72 67 72 65 69 62 56 62 64 54 55 60 67 76 89 82 81 82 77 65 62 64 61 59 57
82 84 92 98 88 94 98 92 92 98 98 99 90 94 95 98 97 85 74 73 64 65 72 71 63 63 61 58 58 57 64 58 55 62 67 74 67 78 76 74 66 63 65 69 64 62 60

GFSGBSN_prec_cthk_075.txt.gz
RH
40 41 41 41 41 40 41 41 38 38 36 34 38 43 42 47 47 41 39 37 34 32 32 32 29 25 25 27 29 22 31 36 34 35 34 33 34 33 33 31 29 30 27 25 21 22 23
41 41 40 39 38 37 38 39 39 38 35 32 34 35 42 45 43 39 35 37 36 33 31 30 30 30 33 38 29 29 28 28 32 33 34 35 37 33 33 34 32 29 29 23 20 22 26
40 38 37 34 34 32 32 32 32 34 38 41 40 40 38 37 36 37 33 27 28 31 31 30 29 30 36 36 28 26 26 33 34 36 37 37 36 36 34 36 33 31 28 20 18 22 28
40 42 39 36 36 35 32 32 30 28 30 35 40 44 38 31 34 34 27 21 20 19 21 24 26 30 32 32 29 29 24 28 34 39 40 39 39 37 37 38 37 33 28 21 21 28 36
37 40 42 43 41 40 38 30 35 34 23 22 23 34 41 39 34 27 23 19 17 13 13 16 18 24 24 25 29 34 36 34 31 37 40 39 41 40 40 42 41 35 30 22 26 33 39
37 40 42 44 46 46 45 43 37 38 35 31 24 19 21 29 36 31 27 24 29 21 14 15 22 23 13 14 23 31 35 36 32 36 40 40 41 43 41 45 46 36 32 25 28 38 42
35 36 36 36 35 42 44 42 49 51 53 46 44 39 30 27 19 17 13 12 13 21 27 16 22 16 11 18 22 27 34 38 36 32 39 42 43 43 44 48 42 35 31 31 30 35 39
34 31 34 37 27 27 24 28 37 38 45 49 47 48 44 40 36 27 26 31 32 28 27 19 18 20 12 12 22 18 27 34 35 38 39 41 44 43 45 47 44 39 34 33 34 37 39
35 35 32 25 34 25 23 21 26 26 30 33 35 37 43 43 27 16 17 27 39 43 40 24 10 11 12 11 17 11 20 29 35 37 39 41 43 42 44 45 43 40 34 30 35 39 36
31 30 30 30 25 22 22 23 20 23 26 28 29 38 42 40 32 23 30 33 32 39 34 23 19 13 11 10 19 9 11 17 30 32 38 39 42 43 45 47 42 41 28 39 41 41 40
27 25 25 24 23 25 26 27 28 27 28 28 36 39 40 43 40 33 38 38 34 33 16 7 12 17 18 14 14 15 11 12 25 28 33 35 40 42 46 47 44 42 39 47 46 42 43
23 24 25 23 21 21 21 26 29 31 32 34 37 39 42 46 44 42 39 42 44 41 26 9 11 20 21 20 16 20 18 15 15 27 29 31 35 39 41 44 44 39 50 54 51 46 50
27 25 23 23 19 19 24 29 29 32 34 39 41 46 49 50 52 55 42 49 60 54 17 13 21 27 23 24 24 20 25 20 22 26 31 32 31 35 41 48 48 51 53 62 58 55 51
30 28 26 26 23 23 28 33 32 33 36 41 50 53 54 56 61 63 50 65 66 32 26 19 24 27 29 28 27 26 30 32 25 26 31 35 38 34 36 41 47 53 53 65 62 58 49
32 31 30 28 23 24 30 36 35 37 38 45 53 56 58 61 68 75 67 71 44 41 34 31 26 29 29 40 40 34 31 30 28 31 34 40 38 33 36 44 45 49 54 53 65 68 63
33 33 30 28 30 34 38 41 43 40 45 53 60 64 61 68 78 86 83 50 47 44 43 40 41 33 38 42 52 51 43 35 31 29 35 42 42 36 38 44 47 51 54 61 65 72 63
32 33 36 39 43 45 47 49 45 45 52 63 67 72 63 75 89 91 74 63 56 52 52 53 47 44 40 49 50 68 53 42 40 39 41 42 47 44 45 46 50 56 56 58 61 63 61
48 52 55 56 55 56 58 52 51 54 60 74 79 83 73 85 95 86 76 68 67 71 70 65 59 52 48 49 55 66 80 50 57 61 52 43 47 52 51 49 49 53 54 57 68 72 63
81 80 74 72 71 67 60 58 60 60 70 85 95 91 95 91 94 89 84 78 76 75 74 70 68 64 45 42 56 62 64 66 65 68 61 64 55 58 52 51 50 57 58 56 62 67 65
97 98 96 90 79 74 72 75 79 82 90 97 98 94 99 95 83 86 88 83 81 76 76 76 75 72 59 48 47 62 65 71 79 77 75 74 60 50 49 48 50 57 58 58 62 69 62
97 98 98 97 98 98 97 98 98 98 99 99 97 92 91 83 77 80 81 78 82 78 73 73 70 76 72 65 50 56 58 72 73 76 90 77 68 59 51 52 60 59 60 63 66 59 53
97 97 97 97 98 98 98 98 98 98 99 98 96 87 90 83 81 86 83 77 77 76 73 75 72 73 72 63 50 54 65 69 79 86 89 85 75 70 64 62 62 66 64 66 68 64 53
69 66 66 73 85 93 95 97 99 98 99 98 97 97 94 89 86 82 67 73 74 74 72 75 76 76 72 62 49 46 50 65 77 91 91 94 84 77 72 68 71 75 60 65 68 66 62
50 48 47 49 51 59 76 85 91 96 98 98 96 97 98 85 84 71 77 75 75 77 76 78 79 70 64 65 57 44 51 63 71 79 80 96 94 84 82 77 88 56 55 60 66 66 60
64 66 61 60 62 62 62 63 78 89 96 98 99 98 95 89 91 86 79 76 82 81 81 79 77 74 70 69 61 53 52 62 61 51 64 84 90 97 96 79 63 55 57 67 73 67 61
85 84 82 83 83 80 79 82 80 74 84 98 99 98 97 96 87 86 84 83 83 85 87 78 80 77 73 74 68 62 65 60 67 54 55 65 78 89 89 88 83 59 55 63 73 71 63
91 91 94 96 95 95 91 85 82 88 83 77 90 98 99 95 92 92 84 84 83 85 83 78 78 78 77 76 76 71 61 58 66 62 62 72 74 75 83 97 81 64 57 57 82 67 71
93 90 92 95 98 97 98 97 91 87 88 86 79 84 92 94 92 92 90 82 80 78 78 73 79 76 81 78 76 70 62 50 54 59 65 72 73 73 76 89 90 69 62 67 67 68 71
87 83 84 87 86 96 98 99 97 95 92 91 90 84 85 92 96 93 88 81 71 67 71 74 69 72 71 75 72 68 65 58 50 56 53 64 54 52 63 74 72 73 65 66 69 80 71

GFSGBSN_prec_cthk_078.txt.gz
RH
36 34 33 34 35 36 37 37 38 38 36 34 34 33 33 36 36 38 39 37 37 38 37 35 34 33 31 30 26 25 30 35 37 37 35 34 33 32 34 32 31 30 31 30 27 24 25
37 37 36 36 37 36 34 32 32 32 32 32 33 34 33 31 31 30 32 34 35 37 36 36 36 33 33 39 33 27 28 27 30 38 38 38 37 35 34 36 35 32 31 31 26 23 23
35 36 37 39 39 35 33 32 31 30 28 27 27 28 31 31 33 31 30 32 38 40 35 34 37 35 35 37 33 32 31 29 31 30 32 35 38 38 37 36 35 35 35 32 26 23 23
33 35 35 34 36 39 39 35 33 30 30 29 28 27 28 33 37 34 31 29 27 28 38 30 31 31 32 34 31 32 30 32 28 32 35 36 40 41 39 38 37 37 38 36 24 23 25
31 32 36 37 35 36 37 37 35 34 34 35 34 29 25 29 34 35 34 24 23 27 26 31 30 24 24 22 26 31 36 37 36 29 36 41 42 43 42 42 42 41 45 38 26 25 28
36 34 33 36 36 36 36 38 36 34 37 40 33 38 40 28 21 20 33 32 30 26 25 23 32 30 18 13 19 27 36 39 40 34 38 43 43 44 45 45 48 48 48 37 31 26 32
37 37 37 39 36 33 33 35 33 33 42 44 49 49 46 41 29 20 16 24 38 34 40 32 33 26 18 15 20 25 24 35 39 37 39 45 45 45 42 45 45 45 45 38 34 27 34
33 34 36 35 36 34 30 34 34 34 35 40 57 55 59 60 52 42 37 32 33 47 34 23 22 25 19 19 23 18 22 26 33 39 38 40 40 40 42 46 47 49 48 41 34 29 36
28 29 31 34 36 31 30 32 30 33 32 33 34 44 46 59 54 47 44 49 50 51 51 33 22 23 15 12 16 9 15 24 27 33 37 36 36 40 41 46 48 49 48 44 39 34 42
28 28 28 28 31 29 27 28 30 24 30 26 29 38 41 44 41 41 36 45 45 46 45 23 20 25 24 22 22 9 10 11 23 27 32 37 34 39 42 44 46 50 42 43 39 41 46
38 28 29 29 27 26 25 24 28 30 25 32 32 34 35 41 39 42 49 46 45 38 19 11 16 19 22 19 24 22 13 12 13 19 21 31 34 40 42 44 48 48 45 46 41 46 49
36 37 30 29 30 27 22 23 25 28 33 33 28 37 42 48 39 45 38 43 43 43 26 12 19 27 29 21 18 24 23 17 16 17 18 22 28 34 38 45 47 48 48 45 46 52 64
36 38 33 33 33 29 22 20 22 31 32 34 36 41 48 48 39 48 45 46 58 57 19 18 27 25 22 27 27 22 27 24 22 25 26 25 26 28 35 41 44 47 50 56 60 70 63
40 40 38 37 31 29 26 25 22 33 36 36 33 48 51 56 54 59 54 57 63 37 34 22 27 30 26 24 28 30 27 30 25 22 21 22 28 24 29 37 45 50 50 60 63 66 61
40 40 41 38 36 34 31 30 28 32 39 42 40 50 56 55 57 56 63 64 43 44 39 34 27 27 29 33 31 34 34 33 30 30 28 28 27 22 23 30 40 50 52 47 63 72 71
40 43 42 37 37 36 34 32 32 37 47 51 53 56 56 62 67 62 66 46 45 46 47 41 37 36 35 36 40 43 45 44 40 36 35 34 37 31 32 33 35 42 51 62 68 77 77
41 39 36 37 36 36 38 41 45 49 52 60 64 64 59 59 74 70 56 52 48 47 50 52 52 46 44 41 38 47 51 56 53 46 44 42 45 41 37 39 41 46 49 57 63 65 63
46 49 47 44 43 47 51 55 55 58 62 71 71 71 63 68 73 72 57 57 49 57 58 60 60 60 57 52 45 44 54 59 65 58 60 50 44 47 41 44 47 45 51 54 65 67 70
64 62 68 76 80 73 71 68 68 71 75 75 75 72 70 72 73 67 65 62 60 58 69 75 74 71 70 61 53 44 48 56 58 69 80 75 60 48 43 42 49 52 54 57 62 70 75
91 96 97 98 98 89 86 83 81 79 79 79 86 78 81 84 65 70 71 67 67 68 80 85 86 82 81 73 59 55 44 41 64 77 76 88 77 62 44 42 46 56 54 58 62 70 68
98 98 97 98 97 98 92 85 82 80 75 82 79 87 67 80 66 66 80 71 74 81 83 83 86 86 85 81 73 65 47 33 47 65 73 95 90 70 53 46 47 53 55 58 58 57 60
98 98 98 98 98 98 98 98 79 73 83 86 75 69 76 80 84 87 88 81 79 84 84 86 85 81 83 82 75 66 59 50 59 71 79 91 94 80 58 51 52 54 53 56 57 59 59
87 88 89 89 91 96 98 98 98 97 96 92 85 85 87 84 81 90 84 83 82 88 88 85 86 85 81 76 75 68 62 48 55 64 85 97 97 98 74 61 58 65 50 53 55 55 56
62 58 57 58 61 66 77 94 98 99 98 98 94 93 99 95 88 76 82 89 91 89 90 86 87 86 77 75 73 71 61 48 48 57 71 87 88 98 91 81 85 54 53 58 62 59 58
53 58 59 55 52 54 54 59 85 97 98 99 97 99 98 96 94 90 92 92 92 94 92 89 85 83 86 82 79 76 69 58 43 53 68 87 93 99 96 92 76 62 61 64 66 58 59
76 81 81 82 81 73 57 53 61 76 96 98 98 99 98 95 90 97 96 94 93 92 94 85 86 89 87 87 85 79 77 63 57 56 48 67 85 89 99 90 96 71 66 61 62 65 56
89 87 88 89 90 88 83 77 71 68 76 90 94 98 98 96 90 93 91 92 91 91 89 87 89 90 87 92 87 82 75 63 63 71 75 78 79 84 89 85 76 63 66 69 73 64 59
91 92 95 93 91 92 91 93 91 88 87 88 83 96 97 97 96 92 87 86 88 85 84 84 91 90 89 92 88 84 76 66 57 54 73 83 85 86 86 84 77 55 60 75 76 66 65
84 90 89 91 88 88 91 95 97 98 96 95 90 87 98 99 97 97 94 88 80 79 79 84 80 82 78 80 78 75 74 72 62 60 49 65 68 75 72 69 60 62 71 66 71 77 68

GFSGBSN_prec_cthk_081.txt.gz
RH
41 40 39 37 35 34 33 33 32 32 29 27 27 27 27 28 29 29 29 30 31 32 32 34 35 36 37 35 38 36 33 32 41 42 39 35 33 32 33 32 31 32 32 28 31 31 28
40 38 38 39 38 37 36 35 33 28 27 26 26 26 27 28 27 27 26 27 27 27 29 29 33 35 37 41 41 43 39 34 31 38 42 40 36 36 36 35 33 33 34 31 32 32 28
35 34 34 34 35 35 33 34 35 34 28 24 25 24 24 26 26 24 25 25 25 25 28 32 32 35 33 34 38 40 39 38 33 30 33 38 38 39 39 37 36 36 36 33 35 33 26
36 33 35 34 36 33 30 32 32 32 32 30 28 25 25 27 26 26 25 25 28 29 27 23 25 33 35 32 33 38 38 37 37 32 31 33 33 37 36 38 39 39 38 37 37 31 26
35 36 36 31 32 34 33 29 29 31 30 28 31 30 31 31 32 32 27 24 27 31 31 28 29 29 27 31 28 37 38 38 43 41 34 36 38 38 39 40 40 40 38 40 38 32 26
33 33 34 34 35 33 29 29 27 27 26 25 32 35 38 36 37 32 30 27 25 29 37 35 36 32 27 25 25 31 42 40 43 46 39 40 43 43 44 42 39 44 45 43 39 33 29
30 31 32 32 33 32 33 33 26 27 25 26 30 34 39 49 47 41 41 33 28 28 31 36 35 31 23 22 30 39 32 37 40 43 44 44 46 46 43 45 44 44 42 42 40 38 35
31 31 30 37 32 32 31 32 29 25 25 27 28 33 36 45 46 52 49 47 50 48 40 29 29 36 29 28 30 33 30 33 38 39 43 46 45 44 44 46 45 44 43 41 41 42 37
30 28 27 27 27 25 27 27 24 23 24 27 34 32 36 39 41 48 47 54 58 58 57 38 31 35 30 24 30 23 35 27 29 35 35 37 39 42 44 45 46 47 48 44 45 46 39
29 32 35 37 29 26 27 27 27 21 23 30 31 32 35 40 42 43 41 46 55 60 48 36 32 32 37 29 29 18 19 23 36 30 26 33 33 37 42 39 40 42 44 46 48 48 42
34 32 30 35 34 30 27 28 28 22 20 26 30 32 37 46 39 43 47 52 57 52 32 23 30 30 31 28 27 34 29 19 13 22 25 28 27 28 36 42 44 43 45 47 47 46 43
25 26 29 37 43 36 36 30 28 25 21 24 27 32 44 44 43 45 54 49 49 53 34 26 34 32 27 34 28 26 32 38 28 20 24 22 22 23 27 35 41 45 48 50 50 49 48
19 31 34 39 40 41 37 34 31 22 20 29 29 33 47 53 42 50 54 52 62 54 22 27 27 25 24 26 29 27 28 30 32 31 23 25 19 19 21 32 41 47 51 53 58 59 41
37 35 36 43 47 45 38 37 33 25 24 31 38 39 48 53 52 58 53 55 57 38 42 33 31 33 26 26 30 35 34 31 28 27 26 25 25 23 19 22 32 41 48 53 53 54 43
30 43 46 44 43 41 42 42 40 36 32 37 49 44 42 49 54 56 60 63 44 42 38 33 26 28 31 35 34 36 38 37 35 32 29 27 23 19 19 19 21 37 43 45 53 64 62
35 34 47 45 44 44 44 42 45 41 36 43 56 56 45 51 64 66 60 54 49 48 48 43 32 34 37 35 38 43 46 46 44 43 36 36 34 27 30 27 26 29 35 52 54 55 57
46 54 54 54 54 53 39 38 40 43 48 57 69 67 50 54 76 74 62 54 48 43 43 46 45 42 43 43 42 44 43 52 55 55 49 41 41 39 34 34 32 33 36 43 47 50 48
58 60 55 50 49 54 54 49 43 52 61 72 76 73 59 70 76 76 73 64 52 48 43 44 47 49 48 52 49 46 44 43 53 57 64 64 53 45 38 39 37 37 38 41 51 59 56
59 68 75 72 62 56 61 60 63 64 66 79 79 71 69 84 79 67 66 63 59 51 48 50 48 51 59 59 54 51 50 42 46 49 64 67 69 57 41 37 39 41 44 45 45 53 52
70 77 87 88 87 88 84 87 86 92 85 86 84 81 77 83 81 74 64 70 72 57 51 55 58 58 67 73 71 62 58 48 43 43 49 65 77 80 63 48 46 44 46 49 50 55 43
92 96 98 97 98 98 98 98 98 93 94 99 92 79 68 77 76 75 74 59 58 60 59 59 62 69 81 87 85 74 69 62 51 39 47 54 64 66 73 69 63 49 48 52 54 49 53
96 98 98 98 98 98 98 98 98 98 90 89 87 81 80 66 74 76 70 63 58 67 68 66 67 83 85 85 85 80 75 69 63 62 57 63 86 91 75 72 73 61 48 46 50 52 53
91 81 80 87 95 98 98 98 98 98 96 86 86 85 83 81 87 81 84 76 64 84 81 80 86 88 92 87 88 77 78 73 69 64 59 57 81 93 68 68 86 74 41 45 47 50 51
73 68 66 65 65 71 83 93 97 98 97 90 79 71 78 77 79 80 79 79 86 84 88 88 89 92 89 91 84 79 78 76 71 62 58 56 73 86 84 91 97 72 55 47 47 47 50
59 59 56 55 54 52 56 69 85 97 99 96 86 79 76 72 78 80 84 90 93 94 94 93 88 90 95 95 92 85 78 73 61 50 45 50 66 90 95 97 93 83 75 68 60 56 57
61 64 71 73 71 71 65 60 65 76 96 99 93 92 93 89 75 78 87 91 93 94 98 95 94 94 96 97 95 89 77 71 63 61 50 49 64 91 95 93 88 76 76 77 70 67 65
84 87 88 90 88 87 87 84 76 65 79 97 97 97 97 95 86 88 85 93 93 94 96 93 95 98 98 96 93 88 81 68 64 74 92 75 80 83 80 84 77 65 64 70 74 75 72
92 92 88 88 93 95 94 96 94 79 63 76 95 98 99 98 97 91 86 84 91 91 93 92 97 98 97 95 92 91 85 74 65 55 75 92 92 85 86 92 87 74 71 81 80 73 76
95 91 83 84 88 90 95 98 98 98 82 76 81 95 98 98 97 96 93 86 78 79 84 89 84 87 88 90 88 84 84 82 68 61 49 59 73 88 85 84 76 76 72 74 79 78 76

GFSGBSN_prec_cthk_084.txt.gz
RH
47 46 43 44 43 42 41 39 38 36 33 29 25 24 24 22 21 20 20 22 22 22 23 24 26 30 33 36 39 37 36 35 44 41 39 37 39 38 35 32 30 30 27 30 31 31 29
47 45 43 42 40 39 37 36 36 35 34 31 25 22 21 21 21 20 19 18 20 20 20 23 25 27 34 33 35 38 38 38 40 44 46 40 42 42 37 34 34 33 33 32 34 33 31
50 44 42 39 37 36 36 33 33 32 32 31 29 26 24 24 22 20 19 19 18 19 20 21 22 24 32 32 31 31 34 38 41 44 48 47 41 40 40 39 38 37 36 34 34 36 34
46 47 45 44 42 37 35 32 30 30 28 28 27 26 25 27 26 24 22 19 18 18 18 19 21 31 32 25 24 31 30 34 40 41 42 47 44 39 42 41 39 39 38 37 35 36 33
42 40 41 38 38 37 35 34 32 29 25 26 26 23 26 27 28 27 26 22 18 17 17 19 25 35 32 30 28 28 28 31 37 44 44 40 40 35 38 41 38 36 36 37 40 37 37
41 40 37 35 36 35 34 33 33 32 26 24 23 22 23 25 26 27 28 25 22 23 28 30 32 34 31 31 30 37 36 39 39 45 51 44 47 42 43 42 35 37 39 42 40 38 39
43 42 38 36 34 33 32 32 31 31 29 23 21 21 22 23 23 23 23 30 36 38 36 37 30 24 22 33 32 28 30 35 33 47 47 48 51 46 46 47 45 42 42 40 39 40 42
42 37 38 33 30 32 38 30 30 30 28 22 19 20 23 23 22 22 26 35 41 47 44 40 36 33 26 33 38 36 35 37 38 33 45 50 47 47 50 49 49 45 43 41 41 41 43
45 37 33 31 28 38 36 28 26 27 26 23 21 25 24 22 23 23 28 33 42 51 50 42 48 44 38 31 34 35 37 38 40 35 38 47 42 44 51 55 52 46 45 43 42 45 43
35 29 41 37 39 39 37 36 32 28 28 26 25 24 20 23 24 30 35 35 41 52 49 33 41 44 42 37 32 32 27 35 38 40 36 40 48 39 47 48 46 45 44 43 45 46 43
29 27 30 29 32 34 37 36 34 28 28 25 20 22 24 27 34 33 41 41 45 50 36 26 33 39 39 38 33 43 41 32 32 38 48 37 29 39 34 38 48 44 43 40 43 45 46
27 28 27 25 25 31 36 35 35 31 25 24 20 24 25 29 32 30 44 44 51 51 38 25 36 39 35 37 35 35 41 36 38 28 28 37 42 40 36 33 35 42 45 45 45 46 49
30 29 27 24 28 35 36 35 36 32 29 22 21 26 30 37 43 42 46 53 54 46 28 29 36 34 34 37 37 35 42 36 36 38 36 23 19 22 28 27 30 37 41 47 52 53 46
29 29 31 36 34 37 41 41 37 32 30 24 23 32 36 35 43 49 52 60 62 37 34 36 37 33 28 32 39 36 34 39 38 31 31 34 32 27 26 19 22 27 38 45 52 51 48
31 30 26 32 38 42 43 44 38 37 38 32 29 36 39 39 46 61 61 63 38 39 38 36 35 35 39 36 35 37 37 35 40 37 30 26 26 28 23 24 16 26 31 35 45 45 55
31 29 27 31 32 37 45 44 43 49 47 42 39 44 39 48 52 72 70 60 51 50 44 33 32 32 40 35 31 36 41 48 44 44 41 35 32 25 25 26 25 24 31 35 39 47 48
38 39 37 37 42 42 59 63 54 52 50 45 53 59 45 51 62 84 76 68 55 48 50 47 41 36 35 40 36 33 38 46 50 52 52 46 38 37 34 33 29 29 32 34 32 37 41
41 43 41 42 48 52 56 57 52 52 54 57 63 66 57 69 79 77 80 74 68 50 43 47 48 45 37 39 38 37 37 40 48 51 56 61 57 42 35 40 34 37 36 34 40 34 41
39 35 39 45 56 68 73 63 59 57 64 75 75 69 62 83 88 73 69 73 61 58 54 48 45 45 47 50 51 47 44 43 41 41 50 56 69 58 43 33 35 36 38 37 39 43 42
35 40 49 61 70 81 86 81 68 68 69 84 90 83 72 79 82 82 73 72 86 71 63 63 58 54 54 58 63 59 53 49 52 48 39 39 42 58 62 65 60 57 46 44 46 48 45
49 63 76 88 94 96 96 95 93 85 80 92 92 80 72 76 67 72 82 78 76 77 67 64 65 56 55 59 67 68 67 63 59 53 50 46 45 41 48 54 49 50 47 47 43 38 48
97 98 98 98 98 98 98 98 98 98 98 99 94 90 81 68 66 72 92 71 79 70 72 63 56 50 56 66 70 72 71 69 63 62 63 57 60 56 53 60 59 51 47 43 41 42 41
98 98 98 98 94 94 97 98 98 98 99 99 96 96 88 75 73 92 75 79 81 78 69 56 60 66 65 76 79 82 77 73 67 65 69 67 59 61 52 60 76 62 58 61 44 40 38
81 79 79 78 73 71 74 89 97 98 99 97 95 94 90 76 83 64 79 83 74 68 67 73 76 75 83 89 91 86 80 73 71 71 69 65 62 67 58 61 74 56 70 74 54 46 43
75 72 71 70 67 61 59 57 66 94 98 98 95 96 88 77 77 83 81 94 85 84 91 93 88 88 94 98 93 84 80 77 67 64 65 63 63 67 61 67 59 70 78 93 81 56 49
54 52 55 57 57 57 56 59 56 58 89 98 96 95 94 82 69 77 80 81 85 83 95 93 96 95 97 98 96 86 79 73 69 65 56 55 55 60 58 80 67 63 66 84 81 77 65
77 81 82 84 84 85 86 79 71 63 65 93 96 96 95 85 73 70 73 83 89 90 92 95 98 98 98 98 94 83 77 71 70 69 85 75 68 63 65 91 71 68 69 81 98 98 86
93 91 92 91 91 92 93 93 89 81 68 70 91 97 94 86 77 74 80 80 83 89 92 95 98 98 99 98 92 85 78 72 68 58 82 94 77 65 77 92 76 63 68 82 93 92 87
88 89 91 93 95 91 90 93 98 95 89 81 72 96 98 94 91 84 80 84 87 87 88 95 86 93 93 92 86 83 89 83 72 68 50 69 90 96 78 69 74 73 81 83 81 83 76

GFSGBSN_prec_cthk_090.txt.gz
RH
52 51 49 49 48 46 45 46 47 46 45 43 42 41 37 33 31 28 28 27 24 22 20 20 19 18 18 23 25 19 25 29 30 30 36 38 37 40 38 40 42 38 34 33 31 30 29
50 50 51 54 49 46 44 42 40 40 39 40 39 38 38 34 31 29 27 25 24 23 22 19 17 16 21 23 17 21 20 23 28 36 40 42 40 40 40 39 41 40 38 34 32 31 29
50 50 45 42 46 45 45 44 42 41 39 40 38 36 36 33 28 25 26 24 21 21 20 19 18 16 22 17 14 17 18 20 23 29 35 42 43 44 43 43 41 43 42 39 34 31 31
42 46 49 53 47 43 45 45 45 44 40 36 35 34 32 29 26 23 22 20 18 17 18 18 18 18 21 14 15 15 16 19 21 24 32 36 40 43 46 47 46 46 46 42 36 34 32
39 40 40 45 50 55 48 46 44 42 42 39 35 32 31 28 25 21 17 16 14 18 18 18 18 25 24 21 18 18 17 17 22 22 25 31 36 43 48 49 51 49 45 45 43 38 35
23 28 31 35 43 46 48 50 49 44 42 39 36 31 28 26 23 17 14 12 12 22 28 28 24 32 27 22 18 20 23 27 22 21 23 23 25 29 36 47 45 47 48 48 46 42 36
27 24 26 28 28 33 38 39 41 45 49 42 39 34 28 25 21 17 12 10 26 30 37 27 28 21 24 21 21 22 20 29 21 21 23 25 26 23 28 37 43 50 51 50 45 45 39
24 22 25 22 30 38 35 38 37 37 45 44 38 35 32 29 23 17 14 26 32 32 26 16 16 16 13 17 21 24 23 31 32 34 37 32 24 25 27 32 42 45 46 47 47 49 43
26 29 37 38 39 39 33 37 33 37 46 42 37 35 33 26 19 13 24 32 31 32 30 14 9 11 14 17 16 16 25 24 28 31 38 45 34 30 32 28 37 44 48 50 59 58 50
50 45 43 42 42 41 35 37 38 42 47 42 40 35 39 27 23 25 38 40 39 33 32 13 18 17 18 21 19 16 21 26 27 32 43 46 45 40 46 42 33 40 47 59 67 71 66
63 51 48 42 42 40 34 39 38 40 43 40 38 35 29 24 25 33 48 50 40 40 34 24 25 22 21 16 21 22 22 28 28 39 42 33 41 44 43 41 44 43 51 63 72 74 66
74 65 60 53 40 37 33 33 36 33 37 39 37 36 26 20 23 19 39 40 48 49 31 13 21 19 20 18 20 28 30 32 34 36 40 38 39 47 48 49 44 51 53 57 63 68 74
85 82 70 59 55 53 40 39 32 33 39 40 37 36 26 27 34 54 61 65 64 48 13 16 28 23 23 28 25 26 34 29 32 38 38 35 38 44 54 54 48 47 55 63 75 78 67
76 85 77 69 57 49 41 45 37 43 48 43 40 37 30 25 24 42 55 74 71 30 28 21 41 47 34 28 37 33 38 35 31 37 37 41 40 39 46 46 46 50 49 56 67 80 83
69 73 75 59 58 50 38 43 50 50 49 46 41 36 33 24 31 41 65 72 44 42 42 47 53 39 39 35 39 44 43 45 49 46 45 48 44 35 39 42 46 52 55 46 56 56 68
53 56 55 60 55 46 42 42 53 56 54 52 48 44 45 45 44 65 72 67 51 46 68 67 72 55 47 45 40 50 50 49 60 68 50 53 60 53 44 38 40 42 51 61 61 63 58
45 47 45 45 42 47 51 52 53 50 48 52 51 51 44 46 66 81 77 61 60 50 78 86 67 73 70 71 56 56 68 72 64 60 44 58 58 47 50 35 35 38 39 44 43 47 52
41 45 44 42 44 48 55 55 53 51 52 51 56 69 63 63 81 75 65 61 65 69 73 89 86 67 88 78 72 62 55 65 73 60 45 65 49 53 52 50 44 44 44 36 43 49 48
40 42 49 51 55 56 58 56 60 60 61 70 70 69 76 97 88 76 65 62 64 73 75 81 74 61 73 70 69 61 56 60 46 53 49 41 53 61 55 46 51 50 53 49 44 47 53
41 41 43 46 44 43 45 46 48 47 52 75 89 86 64 94 88 85 78 70 59 61 80 77 76 61 65 63 56 60 53 57 47 49 54 42 37 45 63 82 67 62 55 52 55 62 53
42 44 46 45 43 41 40 41 47 54 72 91 93 88 87 85 82 78 74 72 87 68 65 78 83 75 57 49 48 51 53 59 62 72 59 51 42 36 27 44 58 57 52 54 53 53 55
81 74 68 63 58 54 45 44 57 82 92 97 91 86 83 88 93 85 58 61 74 78 81 80 80 82 71 82 68 66 73 72 66 70 55 55 61 49 48 34 40 53 47 43 46 46 45
98 98 97 96 98 99 97 91 91 94 98 93 88 89 90 85 80 80 81 79 62 68 65 77 93 83 71 75 70 67 77 77 74 70 64 61 62 59 53 44 41 41 35 35 36 39 42
91 92 93 97 96 96 98 98 98 98 98 96 90 93 95 88 88 81 71 66 70 69 78 79 93 89 78 76 71 50 56 60 62 59 61 60 61 66 64 56 53 29 30 45 39 43 49
79 78 80 88 90 87 89 96 98 98 99 98 97 98 94 91 86 85 85 83 71 66 67 71 79 81 95 80 65 64 50 51 46 49 54 55 61 74 73 61 45 35 39 44 50 52 59
68 66 62 65 69 67 70 85 92 89 95 99 98 98 99 97 83 79 78 76 84 84 67 68 84 86 81 87 82 71 79 67 60 57 54 60 62 69 72 71 59 55 70 58 58 65 66
87 89 89 78 64 66 59 61 68 69 70 86 92 94 99 97 89 88 82 82 78 81 83 78 87 97 90 90 86 74 67 74 80 75 79 71 75 76 79 77 58 52 70 89 77 80 87
92 92 93 93 94 83 80 70 66 68 71 74 75 85 92 93 85 87 86 83 77 83 88 88 98 86 87 91 84 74 74 85 68 64 91 86 87 84 79 73 70 61 78 93 89 80 79
92 90 89 92 89 94 96 90 80 77 75 73 74 75 86 89 89 90 88 80 84 91 92 98 88 80 83 86 79 81 79 80 68 69 72 88 78 81 80 73 65 70 78 74 77 70 72